Weather History for KROG - March, 2014

Change the Weather History Date:

Monday, March 3, 2014

  Actual Average Record
Temperature  
Mean Temperature 14 °F -  
Max Temperature 27 °F 50 °F 69 °F (2011)
Min Temperature 1 °F 31 °F 1 °F (2002)
Degree Days  
Heating Degree Days 51    
Moisture  
Dew Point 1 °F    
Average Humidity 76    
Maximum Humidity 92    
Minimum Humidity 46    
Precipitation  
Precipitation 0.57 in - - ()
Sea Level Pressure  
Sea Level Pressure 30.39 in    
Wind  
Wind Speed 6 mph (NE)    
Max Wind Speed 9 mph    
Max Gust Speed -    
Visibility 5 miles    
Events Fog , Snow    
Averages and records for this station are not official NWS values.
T = Trace of Precipitation, MM = Missing Value Source: NWS Daily Summary

Daily Weather History Graph

Daily Weather History Graph

Search for Another Location

Airport or City:

Trip Planner

Search our weather history database for the weather conditions in past years. The results will help you decide how hot, cold, wet, or windy it might be!

Date:

Astronomy

Mar. 03, 2014 Rise Set
Actual Time 6:44 AM CST 6:13 PM CST
Civil Twilight 6:18 AM CST 6:38 PM CST
Nautical Twilight 5:48 AM CST 7:08 PM CST
Astronomical Twilight 5:18 AM CST 7:38 PM CST
Moon 7:58 AM CST (3/3) 9:10 PM CST (3/3)
Length of Visible Light 12h 20m
Length of Day
11h 28m
Waxing Crescent, 8% of the Moon is Illuminated
Mar 3
Waxing Crescent
Mar 8
First Quarter
Mar 16
Full
Mar 23
Last Quarter
Mar 30
New

Hourly Weather History & Observations

Time (CST) Temp. Windchill Dew Point Humidity Pressure Visibility Wind Dir Wind Speed Gust Speed Precip Events Conditions
12:04 AM 5.0 °F - 1.4 °F 85% 30.31 in 1.5 mi North - - 0.00 in Snow Light Snow
12:10 AM 5.0 °F - 1.4 °F 85% 30.31 in 1.0 mi North - - 0.00 in Snow Light Snow
12:18 AM 5.0 °F - 1.4 °F 85% 30.31 in 0.8 mi North - - 0.00 in Snow Light Snow
12:25 AM 5.0 °F - 1.4 °F 85% 30.31 in 0.5 mi North - - 0.00 in Fog , Snow Snow
12:30 AM 5.0 °F - 1.4 °F 85% 30.31 in 0.5 mi North - - 0.00 in Fog , Snow Snow
12:50 AM 3.2 °F - 1.4 °F 92% 30.32 in 0.2 mi North - - 0.00 in Fog , Snow Heavy Snow
12:54 AM 3.2 °F - 1.4 °F 92% 30.32 in 0.2 mi North - - 0.00 in Fog , Snow Heavy Snow
12:57 AM 3.9 °F - 1.0 °F 88% 30.40 in 0.2 mi North - - 0.00 in Fog , Snow Heavy Snow
1:02 AM 3.2 °F - -0.4 °F 85% 30.33 in 0.5 mi North - - 0.00 in Fog , Snow Snow
1:08 AM 3.2 °F - -0.4 °F 85% 30.33 in 0.8 mi North - - 0.00 in Snow Light Snow
1:11 AM 3.2 °F - -0.4 °F 85% 30.34 in 1.0 mi North - - 0.00 in Snow Light Snow
1:13 AM 3.2 °F - -0.4 °F 85% 30.34 in 1.2 mi North - - 0.00 in Snow Light Snow
1:20 AM 3.2 °F - -0.4 °F 85% 30.34 in 1.2 mi North - - 0.00 in Snow Light Snow
1:26 AM 3.2 °F - -0.4 °F 85% 30.34 in 1.0 mi North - - 0.00 in Snow Light Snow
1:31 AM 3.2 °F - -0.4 °F 85% 30.34 in 0.8 mi North - - 0.00 in Snow Light Snow
1:34 AM 3.2 °F - -0.4 °F 85% 30.34 in 1.0 mi North - - 0.00 in Snow Light Snow
1:44 AM 3.2 °F - -0.4 °F 85% 30.35 in 1.2 mi North - - 0.00 in Snow Light Snow
1:57 AM 3.0 °F - -0.0 °F 87% 30.44 in 1.2 mi North - - 0.00 in Snow Light Snow
2:13 AM 3.2 °F - -0.4 °F 85% 30.37 in 2.0 mi North - - 0.00 in Snow Light Snow
2:16 AM 3.2 °F - -0.4 °F 85% 30.36 in 2.0 mi North - - 0.00 in Snow Light Snow
2:23 AM 3.2 °F - -0.4 °F 85% 30.36 in 1.8 mi North - - 0.00 in Snow Light Snow
2:26 AM 3.2 °F - -0.4 °F 85% 30.36 in 1.8 mi North - - 0.00 in Snow Light Snow
2:57 AM 3.0 °F - -0.9 °F 84% 30.46 in 1.2 mi North - - 0.00 in Snow Light Snow
3:12 AM 3.2 °F - -0.4 °F 85% 30.38 in 2.0 mi North - - 0.00 in Snow Light Snow
3:57 AM 3.0 °F - -2.0 °F 80% 30.47 in 2.5 mi North - - 0.00 in Snow Light Snow
4:15 AM 3.2 °F - -0.4 °F 85% 30.39 in 1.8 mi North - - 0.00 in Snow Light Snow
4:40 AM 1.4 °F - -2.2 °F 85% 30.39 in 2.0 mi North - - 0.00 in Snow Light Snow
4:49 AM 1.4 °F - -2.2 °F 85% 30.39 in 3.0 mi North - - 0.00 in Snow Light Snow
4:57 AM 1.9 °F - -2.0 °F 83% 30.48 in 3.0 mi North - - 0.00 in Snow Light Snow
5:53 AM 1.4 °F - -2.2 °F 85% 30.39 in 9.0 mi North - - 0.00 in Snow Light Snow
5:57 AM 1.0 °F - -2.9 °F 83% 30.47 in 9.0 mi North - - 0.00 in Snow Light Snow
6:57 AM 1.0 °F - -4.0 °F 79% 30.48 in 10.0 mi North - - 0.00 in   Clear
7:57 AM 3.0 °F - -2.9 °F 76% 30.48 in 10.0 mi North - - N/A   Clear
8:57 AM 6.1 °F - -2.9 °F 67% 30.48 in 10.0 mi North - - N/A   Clear
9:57 AM 10.0 °F - -0.9 °F 61% 30.51 in 10.0 mi North - - N/A   Clear
10:57 AM 12.0 °F - -0.0 °F 59% 30.52 in 10.0 mi North - - N/A   Clear
11:57 AM 18.0 °F - 1.9 °F 50% 30.52 in 10.0 mi North - - 0.18 in   Clear
12:57 PM 21.0 °F - 3.9 °F 48% 30.47 in 10.0 mi North - - 0.28 in   Clear
1:57 PM 19.9 °F 9.3 °F 3.0 °F 48% 30.45 in 10.0 mi NNE 9.2 mph - 0.10 in   Clear
2:57 PM 24.1 °F 17.0 °F 6.1 °F 46% 30.40 in 10.0 mi NE 5.8 mph - N/A   Clear
3:57 PM 27.0 °F 23.0 °F 9.0 °F 47% 30.40 in 10.0 mi NW 3.5 mph - 0.01 in   Clear
4:57 PM 23.0 °F 13.9 °F 7.0 °F 50% 30.39 in 10.0 mi North 8.1 mph - N/A   Clear
5:57 PM 19.9 °F 14.9 °F 6.1 °F 55% 30.40 in 10.0 mi North 3.5 mph - N/A   Clear
6:57 PM 17.1 °F 8.7 °F 6.1 °F 62% 30.38 in 10.0 mi NNE 5.8 mph - N/A   Clear
7:57 PM 17.1 °F 10.0 °F 7.0 °F 65% 30.36 in 10.0 mi NE 4.6 mph - N/A   Clear
8:57 PM 16.0 °F - 7.0 °F 68% 30.38 in 10.0 mi Calm Calm - N/A   Clear
9:57 PM 19.0 °F 9.0 °F 8.1 °F 62% 30.37 in 10.0 mi SE 8.1 mph - N/A   Clear
10:57 PM 19.0 °F 11.1 °F 7.0 °F 59% 30.35 in 10.0 mi SSE 5.8 mph - N/A   Clear
11:57 PM 17.1 °F - 8.1 °F 68% 30.33 in 10.0 mi North - - N/A   Clear